EHI
13 6 1 0 0 0 0 0 0 0 0 0 0 1 2 2 1 1 1 1 3 3 3 3 3 4 5 6 6 6 6 6 6 6 6 6 6 4 3 3 3 3 4 4 4 4 4 4 3
8 4 0 0 0 0 0 0 0 0 0 0 0 1 2 2 2 2 2 2 3 3 3 3 3 3 4 4 5 6 6 6 6 6 6 6 5 4 3 3 3 3 4 4 5 5 5 4 3
2 1 0 0 0 0 0 0 0 0 0 0 0 1 1 3 3 3 3 3 3 3 3 3 3 3 4 4 4 4 4 4 4 4 4 4 4 3 3 3 3 3 3 4 5 5 4 3 3
0 0 0 0 0 0 0 0 0 0 0 0 0 0 1 2 3 4 3 3 3 3 3 3 3 4 4 4 3 3 3 3 3 3 3 3 3 3 3 3 3 3 3 3 4 4 3 3 3
0 0 0 0 0 0 0 0 0 0 0 0 0 0 1 3 4 5 4 3 3 3 3 3 3 4 5 4 3 3 3 3 3 3 3 3 3 3 3 3 3 3 3 3 3 3 3 3 3
0 0 0 0 0 0 0 0 0 0 0 0 0 0 1 3 5 5 4 3 3 3 3 3 3 4 5 5 4 3 3 3 3 3 3 3 3 3 3 3 3 3 3 3 3 3 3 3 3
0 0 0 0 0 0 0 0 1 1 1 0 0 0 2 3 5 6 5 4 3 3 3 3 3 3 4 5 4 3 3 3 3 3 3 3 3 3 3 3 3 3 3 4 3 3 3 3 3
0 0 0 0 0 0 0 0 1 1 1 0 0 0 2 5 6 5 4 3 3 3 3 3 3 3 3 4 3 3 3 3 3 3 3 3 3 3 3 3 3 3 4 4 4 3 3 3 3
0 0 0 0 0 0 0 0 0 0 0 0 0 1 5 9 9 6 3 3 3 3 3 3 3 3 3 3 3 3 3 3 3 3 3 4 3 3 3 3 3 3 4 4 4 4 3 3 3
0 0 0 0 0 0 0 0 0 0 0 1 2 5 10 14 11 6 3 3 3 3 3 3 3 3 3 3 3 3 3 3 3 3 4 4 4 3 3 3 3 3 3 4 4 4 4 3 3
0 0 0 0 0 0 0 0 0 0 0 2 5 11 16 15 10 5 3 3 3 3 3 3 3 3 3 3 3 3 3 3 3 3 3 4 3 3 3 3 3 3 3 3 3 4 3 3 2
0 0 0 0 0 0 0 0 0 0 0 3 9 17 18 13 7 4 3 3 3 3 3 3 3 3 3 3 3 3 3 3 3 3 3 3 3 2 1 1 3 3 3 3 3 3 3 1 1
0 0 0 0 0 0 0 0 0 0 2 6 14 19 17 10 5 3 3 4 3 3 3 3 3 3 3 3 3 3 3 3 3 3 3 3 2 1 0 1 2 2 3 3 3 3 2 1 0
0 0 0 0 0 0 0 0 0 1 4 9 15 17 15 10 6 5 5 5 5 4 3 4 3 3 3 3 3 3 3 3 3 3 3 3 1 0 0 0 1 1 1 2 2 2 1 1 1
0 0 0 0 0 0 0 0 0 2 6 10 12 12 12 11 8 7 7 7 6 5 4 5 5 4 3 3 3 3 3 3 2 1 2 2 1 0 0 0 0 0 0 0 0 1 1 2 2
0 0 0 0 0 0 0 0 0 3 7 10 10 9 9 10 9 8 7 8 8 7 7 9 10 9 7 6 5 4 3 3 2 1 1 2 1 0 0 0 0 0 0 0 0 0 2 3 3
0 0 0 0 0 0 0 0 1 4 7 8 8 8 8 8 8 8 8 8 9 10 11 14 18 18 14 11 7 5 4 3 2 1 0 1 1 0 0 0 0 1 0 0 0 0 1 2 1
0 0 0 0 0 0 0 0 1 4 5 4 5 6 6 6 7 9 9 9 11 14 15 18 23 23 19 15 11 7 5 4 2 1 0 0 0 0 0 0 0 0 0 0 0 0 0 1 1
0 0 0 0 0 0 0 0 1 3 4 4 5 6 6 5 6 9 11 11 14 19 21 22 24 23 20 16 13 10 7 5 2 1 0 0 0 0 0 1 0 0 0 0 0 0 1 1 1
0 0 0 0 0 0 0 0 1 3 3 3 5 6 6 7 8 12 15 16 18 22 24 23 23 21 18 15 13 11 9 7 4 2 1 1 1 0 0 0 0 0 0 0 0 1 2 2 1
0 0 0 0 0 0 0 0 0 2 2 2 3 4 6 8 12 16 19 19 19 22 24 23 21 18 16 15 13 12 11 10 7 5 3 1 1 0 0 0 0 0 0 0 0 1 2 2 2
0 0 0 0 0 0 0 0 0 1 2 2 3 4 6 10 15 19 21 21 21 23 24 21 17 14 14 15 15 14 14 13 10 6 4 2 0 0 0 0 0 0 0 0 0 0 1 2 2
0 0 0 0 0 0 0 0 0 1 2 4 5 7 9 13 17 20 22 24 25 25 25 20 15 12 12 13 14 15 15 13 9 5 2 1 0 0 0 0 0 0 0 0 0 0 1 2 3
0 0 0 0 0 0 0 0 0 1 2 5 8 11 13 17 21 22 24 26 29 30 29 24 17 13 11 11 11 12 12 11 8 4 2 1 0 0 0 0 0 0 0 0 0 0 1 2 3
0 0 0 0 0 0 0 0 0 0 1 4 9 13 14 18 23 25 25 27 32 35 35 31 24 17 13 11 9 9 10 9 7 5 4 3 1 1 0 0 0 0 0 0 0 0 1 1 2
0 0 0 0 0 0 0 0 0 1 2 5 10 12 14 18 23 26 26 28 34 40 41 38 32 23 17 14 10 9 9 9 7 5 4 4 3 2 1 1 1 0 0 0 0 0 0 1 2
0 0 0 0 0 0 0 0 0 1 5 8 12 14 15 18 22 25 26 28 32 38 42 42 37 28 21 17 13 11 9 8 7 6 5 4 4 3 3 2 2 1 0 0 0 0 1 2 2
0 0 0 0 0 0 0 0 0 2 5 10 14 17 17 18 22 25 28 29 30 33 37 39 37 30 23 19 15 11 8 8 8 7 6 5 4 3 3 3 3 2 2 1 0 1 1 2 2
0 0 0 0 0 0 0 0 1 2 3 7 13 16 17 18 21 25 29 32 31 31 33 35 34 31 25 20 16 11 8 9 9 7 6 5 4 3 3 3 3 4 4 2 1 2 2 2 2
0 0 0 0 0 0 0 1 2 2 2 4 11 15 16 17 19 24 30 34 34 34 34 33 32 30 26 21 15 10 8 9 9 7 6 5 4 3 3 3 4 4 4 3 2 3 4 3 2
Wind_Speed
8 6 3 2 6 6 4 4 2 3 4 3 6 7 7 4 2 4 1 5 6 5 4 7 10 11 11 12 12 12 12 13 13 13 13 13 13 14 14 14 14 15 15 16 16 16 16 16 16
6 5 2 4 7 4 3 3 4 3 4 5 6 6 7 5 4 6 3 4 6 5 4 6 10 10 11 11 11 11 12 12 12 12 12 13 13 13 13 14 14 14 15 15 15 15 15 15 15
5 2 4 6 4 3 1 1 4 4 4 3 5 5 5 4 5 4 4 7 6 5 3 5 10 10 10 10 10 10 11 11 11 11 12 12 12 13 13 13 14 14 14 15 15 15 15 14 14
3 3 5 6 3 1 3 3 5 5 4 6 5 6 5 4 4 5 9 8 7 4 3 5 10 10 10 9 9 10 10 10 10 10 11 11 11 12 12 13 13 13 14 14 14 14 13 13 13
3 5 7 5 3 2 2 4 2 3 4 5 5 5 4 4 8 10 9 8 6 4 3 4 9 9 9 9 9 9 9 10 10 9 10 10 10 11 11 12 11 12 13 13 13 13 12 12 12
5 6 6 2 2 2 2 2 3 5 5 5 5 5 3 4 8 9 8 6 5 4 3 3 8 9 9 9 8 8 9 9 9 9 9 10 10 10 10 11 11 11 11 11 11 12 11 11 10
5 5 4 2 1 1 3 2 3 5 5 4 5 5 2 3 6 7 7 6 4 4 3 2 3 4 7 8 8 8 8 8 8 8 8 9 9 9 9 9 9 10 10 10 10 10 10 10 9
5 6 3 1 2 2 4 4 3 6 5 5 5 7 6 6 8 8 7 5 4 3 3 2 2 3 3 3 7 7 8 7 7 7 8 8 7 7 8 7 7 8 8 9 9 9 9 8 8
4 6 2 4 4 3 5 5 3 3 6 3 3 5 7 13 12 9 6 4 3 4 2 2 2 2 2 2 4 5 6 6 5 4 7 6 3 3 3 5 6 7 7 7 8 8 7 7 6
5 4 5 5 5 6 6 6 6 5 5 3 5 7 13 14 11 10 8 7 6 5 4 2 3 3 2 2 2 2 2 3 3 2 3 3 3 2 3 3 5 5 5 5 6 6 6 5 3
4 4 3 2 4 7 7 5 5 8 4 6 10 13 15 13 10 9 8 7 6 5 4 4 3 3 2 1 2 1 1 2 2 2 2 2 2 2 2 2 2 2 3 3 3 3 2 2 2
3 1 3 3 4 6 7 6 4 5 5 7 12 15 15 14 12 11 10 8 5 5 5 4 4 3 3 2 2 2 1 1 1 1 2 2 1 1 1 1 1 1 1 1 2 1 2 2 2
2 1 1 3 6 6 7 5 4 2 4 10 13 14 14 12 10 8 7 6 6 6 6 5 5 4 3 2 2 2 2 2 2 1 1 2 2 1 1 0 0 1 1 1 1 1 1 1 1
1 2 3 3 4 3 6 3 3 2 8 11 13 12 12 12 10 8 7 7 7 7 6 5 5 5 4 3 2 2 2 2 1 1 2 2 2 2 1 1 1 1 1 1 1 1 1 1 1
3 5 5 3 3 3 6 2 2 5 10 11 11 10 10 9 9 10 10 9 8 7 6 6 6 5 5 4 3 2 2 2 2 1 1 2 2 2 2 2 1 1 1 1 1 1 1 1 1
5 5 2 2 2 3 6 4 4 8 10 9 9 9 9 8 9 9 8 7 7 6 6 6 6 6 5 4 3 2 2 2 2 1 1 2 3 3 2 2 2 2 1 1 1 1 1 1 1
5 2 1 2 2 3 4 5 4 8 9 9 9 9 9 8 7 7 8 8 8 7 7 6 5 6 6 5 3 2 2 2 1 1 1 2 3 3 3 2 2 2 2 1 2 1 2 1 1
2 1 1 3 3 4 3 5 4 8 8 8 7 7 7 9 9 7 7 7 7 7 7 6 5 5 5 4 2 1 1 1 1 1 2 2 2 3 3 2 2 2 2 1 2 2 1 2 2
3 3 3 3 1 3 4 4 4 7 7 7 7 7 8 8 5 5 6 7 7 7 7 7 6 6 5 3 3 2 2 1 1 2 2 2 2 3 3 2 2 2 2 3 3 2 2 1 2
3 2 2 2 1 2 1 2 2 7 9 9 9 9 9 6 4 5 6 7 8 8 8 7 7 6 6 4 3 2 2 1 1 1 1 2 3 3 3 3 2 2 2 2 2 2 2 1 2
2 4 4 3 2 4 3 4 1 3 4 5 6 7 7 9 9 7 8 8 8 9 9 8 7 6 6 5 3 2 2 1 0 0 1 2 2 2 2 3 2 2 2 2 3 3 3 2 2
3 4 5 4 4 2 2 2 6 3 4 6 8 8 9 9 8 8 8 9 9 9 8 7 7 6 6 6 5 4 3 3 2 2 1 1 2 2 2 2 3 2 2 2 3 2 2 3 2
4 3 4 4 4 3 2 1 8 1 4 9 9 10 10 10 10 10 10 10 9 8 8 7 7 6 6 6 6 5 3 3 1 1 1 1 1 2 2 3 3 3 2 2 2 2 2 2 3
5 7 7 6 6 1 2 3 7 5 8 7 8 9 9 9 9 9 8 7 6 7 7 7 7 6 6 6 6 6 5 4 3 2 2 2 1 1 2 2 2 2 2 2 3 2 3 2 2
5 7 5 5 4 5 2 2 9 7 6 7 7 8 8 8 8 8 8 9 8 8 8 7 7 6 6 6 6 6 6 6 5 4 3 3 2 1 2 2 2 2 2 2 2 2 2 3 3
4 9 9 6 5 4 2 4 9 5 4 3 3 4 5 6 7 8 9 9 9 9 9 8 8 7 6 6 6 5 6 4 4 4 3 3 3 2 2 3 2 2 2 2 2 1 2 2 3
6 3 6 8 3 1 5 7 9 3 3 1 1 1 3 6 7 8 8 8 9 9 9 9 8 7 6 6 5 5 5 5 4 4 3 3 2 2 2 2 2 2 1 2 2 1 2 1 1
5 9 6 7 6 3 4 4 5 5 4 3 2 2 3 4 5 5 5 6 7 7 7 7 7 7 6 6 6 5 5 5 4 3 3 3 2 2 2 2 2 1 1 1 1 1 1 1 2
4 4 6 5 6 7 3 8 6 6 5 5 5 4 4 4 5 5 5 5 5 5 6 6 6 5 5 5 5 5 4 4 4 4 3 3 3 3 3 2 2 2 1 1 1 0 1 1 1
3 6 8 6 4 4 5 9 4 3 4 3 3 2 1 3 3 4 5 5 5 4 5 5 6 6 5 5 4 4 4 4 4 4 3 3 3 2 3 3 2 2 1 1 1 1 1 1 2
Wind_Direction
149 141 141 94 55 49 32 360 35 54 52 53 76 79 86 67 85 129 123 124 120 116 113 116 112 110 109 107 106 106 105 105 105 105 105 105 104 104 105 106 107 106 106 106 106 106 106 106 106
141 147 106 61 71 55 1 358 61 74 131 125 83 74 70 63 67 105 122 129 121 119 112 120 119 115 112 110 109 107 106 106 107 107 107 107 106 105 104 106 107 107 107 105 105 106 108 108 108
152 153 81 68 77 125 145 72 111 107 111 84 76 66 73 94 119 134 144 130 113 109 107 128 124 120 115 113 111 108 107 106 107 107 108 109 108 108 107 107 107 107 107 107 107 106 107 109 110
132 59 55 64 56 194 167 154 138 119 71 57 85 70 67 95 136 134 130 125 115 109 112 133 127 124 120 116 114 112 111 108 108 108 109 111 111 111 111 110 109 109 109 109 110 109 108 110 110
70 73 59 47 13 21 119 144 128 99 81 70 82 82 54 44 102 119 126 128 127 122 120 134 131 128 125 121 119 117 113 111 110 110 109 112 112 112 113 113 112 111 111 112 112 111 110 111 110
63 65 74 57 20 48 101 115 97 90 93 91 88 90 61 103 116 127 126 125 130 130 121 129 136 134 130 128 125 120 117 114 113 113 112 111 112 112 113 114 116 114 113 113 112 112 111 111 112
98 88 112 132 101 114 158 110 121 122 112 120 115 99 103 135 128 123 116 114 114 116 109 100 113 129 135 133 129 125 121 120 121 119 116 114 114 116 117 117 118 116 115 115 113 113 113 112 113
118 98 90 118 144 190 148 117 120 123 118 125 122 136 170 170 130 113 105 107 117 119 107 99 89 87 98 120 133 130 126 125 126 125 122 117 115 116 120 119 123 121 120 120 118 116 115 113 116
89 79 147 192 175 178 145 127 138 104 116 128 124 148 154 136 130 122 119 122 147 153 134 126 114 101 96 110 131 127 128 125 119 117 119 102 71 74 98 120 126 125 123 123 123 119 117 111 109
83 122 207 200 175 155 152 144 149 121 124 107 86 99 124 137 145 150 160 170 179 180 178 168 155 146 130 136 94 78 86 86 83 77 86 83 77 72 85 92 113 116 117 118 116 111 104 94 89
115 170 201 185 161 138 140 140 136 133 172 183 157 146 146 152 158 168 178 182 188 184 184 177 173 164 152 127 116 92 81 85 87 98 102 95 81 64 59 49 58 68 84 72 78 77 77 93 102
121 232 173 159 135 134 144 136 127 167 204 166 151 149 153 163 173 180 184 187 181 181 193 183 176 168 166 149 133 128 121 119 123 131 133 115 100 89 82 71 58 67 76 87 76 79 85 96 108
77 355 38 111 114 123 118 126 138 165 118 124 137 149 163 174 181 186 185 180 177 187 194 187 177 176 168 157 169 151 157 160 161 155 152 144 142 149 134 116 98 110 112 117 115 109 103 93 87
117 69 63 79 98 110 122 112 108 153 131 134 150 164 175 181 182 180 180 182 188 193 192 182 181 180 169 170 177 168 167 165 163 174 171 165 164 168 168 171 172 190 164 150 145 141 132 124 124
84 66 46 53 86 119 108 77 209 160 142 149 164 174 182 188 185 190 191 188 189 191 187 184 184 176 172 174 185 178 167 158 172 189 190 181 178 176 172 175 191 211 180 156 132 128 125 145 133
58 64 49 296 113 128 128 215 216 155 153 164 175 180 187 197 198 198 191 187 184 179 179 189 189 173 176 177 181 172 166 174 187 187 190 191 188 182 174 185 205 199 167 158 158 161 140 147 142
38 81 245 284 185 145 157 222 206 164 164 177 186 189 191 199 206 201 191 186 182 179 176 183 182 171 174 172 167 162 160 185 190 179 192 196 196 190 179 198 210 178 157 173 193 166 159 165 165
205 191 234 241 227 150 186 232 192 174 179 188 194 196 197 205 210 196 189 184 178 172 175 179 176 169 160 149 138 138 157 199 200 197 206 198 196 194 185 198 201 171 162 182 184 172 151 162 166
165 173 227 248 228 154 206 229 203 178 186 197 205 204 209 219 212 181 180 176 167 169 175 180 176 168 156 150 159 166 198 214 217 219 218 209 201 195 185 197 187 174 182 195 180 167 157 162 147
152 174 247 309 24 127 189 262 217 189 201 202 204 209 211 212 197 185 179 177 177 180 182 182 181 173 171 168 161 163 164 191 201 214 219 219 209 194 190 188 189 183 183 182 179 171 164 179 167
197 188 198 196 42 52 70 342 280 230 219 213 211 209 207 202 202 193 185 188 182 185 186 186 184 178 175 163 137 117 90 55 63 215 234 236 211 196 186 186 182 180 179 194 193 184 178 188 194
255 215 169 149 103 10 72 289 287 248 245 225 216 210 210 208 200 196 189 190 191 192 183 179 178 176 173 163 166 166 171 190 212 205 210 230 203 187 179 184 184 180 184 204 212 193 188 175 194
208 98 107 98 106 63 39 139 286 318 252 243 225 216 213 207 197 196 196 194 190 183 178 177 173 178 174 173 178 178 181 191 189 170 186 220 211 198 196 195 190 190 193 206 211 198 195 189 193
122 72 56 51 66 36 247 163 274 244 232 244 226 218 212 204 196 193 188 177 178 173 173 173 175 184 179 180 181 184 186 184 179 188 195 210 214 214 212 200 195 195 198 207 213 207 202 203 198
96 90 44 13 17 255 259 184 250 255 248 234 226 219 211 197 189 185 177 177 180 176 175 175 180 188 185 185 190 191 192 188 193 199 199 197 199 211 224 205 199 203 209 207 200 200 207 204 206
165 137 153 179 207 266 322 234 256 273 280 248 219 205 191 190 190 189 186 184 183 181 177 178 187 190 185 190 197 194 191 192 203 204 197 198 202 210 210 198 195 196 207 205 194 209 222 214 220
138 158 155 129 145 178 280 285 300 317 346 1 123 150 187 189 189 190 187 184 181 181 182 183 185 187 190 193 191 194 192 195 200 196 191 194 200 201 187 177 169 177 199 201 193 214 226 202 230
130 141 105 118 141 214 286 282 264 281 281 287 248 218 212 191 184 182 178 179 181 182 178 176 181 189 193 190 193 198 194 192 192 188 192 194 195 184 159 153 153 155 171 183 176 208 214 194 229
104 91 99 107 144 153 218 265 233 228 228 230 234 226 208 193 185 170 158 161 164 165 168 176 180 184 188 191 192 188 185 183 180 187 196 191 183 169 164 168 156 151 146 144 146 194 215 220 242
148 155 144 145 188 164 172 258 268 228 231 226 241 250 206 182 175 162 152 147 147 159 170 179 182 185 186 183 181 179 171 169 174 184 187 174 170 166 161 156 147 152 140 129 146 202 229 228 235